Flag for Venezuela Weather past 2 weeks in Caracas, Venezuela

Now
84 °F

Scattered clouds.


Feels Like: 91 °F
Forecast: 64 / 74 °F
Wind: 3 mph from Northeast

Location: Caracas / Maiquetia Aerop. Intl. Simon Bolivar

Current Time: Sep 19, 2014 at 9:29:43 AM

Latest Report: Sep 19, 2014 at 8:30 AM


Visibility: N/A

Pressure: 29.83 "Hg

Humidity: 70%

Dew point: 73 °F

Location of CaracasLocation

Historic Weather in Caracas — Graph

°F

Caracas temperature yesterday

Maximum temperature yesterday: 91 °F (at 2:30 PM)
Minimum temperature yesterday: 77 °F (at 4:30 AM)
Average temperature yesterday: 83 °F

Past Weeks' High & Low Weather Summary

 TemperatureHumidityPressure
High91 °F (Sep 7, 1:30 PM)89% (Sep 4, 7:30 PM)29.92 "Hg (Sep 4, 7:30 PM)
Low75 °F (Sep 19, 6:30 AM)55% (Sep 6, 4:30 PM)29.71 "Hg (Sep 6, 4:30 PM)
Average82 °F77%29.81 "Hg
* Reported Sep 4 8:30 AM — Sep 19 8:30 AM, Caracas, Weather by CustomWeather, © 2014

Note: Actual official high and low records may vary slightly from our data, if they occured in-between our weather recording intervals... More about our weather records

Advertising

Caracas weather history for previous 24 hours

 ConditionsComfort  
Time TempWeatherWind HumidityBarometerVisibility
8:30 AM
Sep 19
84 °FScattered clouds.3 mph70%29.83 "HgN/A
7:30 AM81 °FScattered clouds.No wind74%29.83 "HgN/A
6:30 AM75 °FScattered clouds.No wind78%29.83 "HgN/A
5:30 AM77 °FScattered clouds.No wind69%29.80 "HgN/A
4:30 AM77 °FPassing clouds.No wind74%29.80 "HgN/A
3:30 AM77 °FPassing clouds.No wind74%29.80 "HgN/A
2:30 AM77 °FPassing clouds.No wind79%29.80 "HgN/A
1:30 AM77 °FPassing clouds.No wind79%29.80 "HgN/A
12:30 AM79 °FPassing clouds.No wind74%29.83 "HgN/A
11:30 PM
Sep 18
79 °FPassing clouds.No wind89%29.83 "HgN/A
10:30 PM79 °FPassing clouds.No wind84%29.83 "HgN/A
9:30 PM81 °FPassing clouds.No wind79%29.80 "HgN/A
8:30 PM81 °FPassing clouds.2 mph84%29.80 "HgN/A
7:30 PM81 °FPassing clouds.2 mph84%29.80 "HgN/A
6:30 PM82 °FPassing clouds.3 mph84%29.80 "HgN/A
5:30 PM84 °FPassing clouds.5 mph74%29.77 "HgN/A
4:30 PM88 °FScattered clouds.3 mph70%29.80 "HgN/A
3:30 PM90 °FPassing clouds.6 mph71%29.74 "HgN/A
2:30 PM91 °FPassing clouds.3 mph63%29.77 "HgN/A
1:30 PM90 °FPassing clouds.6 mph63%29.80 "HgN/A
12:30 PM90 °FPassing clouds.5 mph63%29.83 "HgN/A
11:30 AM88 °FPassing clouds.6 mph66%29.83 "HgN/A
10:30 AM88 °FPassing clouds.5 mph66%29.86 "HgN/A
9:30 AM86 °FPassing clouds.5 mph70%29.83 "HgN/A
Weather by CustomWeather, © 2014

See weather overviewHow to use our weather pages